{"data":{"norad_id":58889,"intl_designator":"2024-020P","name":"STARLINK-31007","alt_names":[],"object_type":"PAYLOAD","status":"ACTIVE","operator":null,"country":"US","launch_date":"2024-01-29","launch_site_code":"AFWTR","launch_vehicle":null,"mission":null,"orbit_class":"UNKNOWN","rcs_meters":null,"size_class":null,"mass_kg":null,"dimensions":null,"purposes":["comms"],"wikipedia_slug":null,"has_3d_model":false,"image_url":null,"decayed_at":null,"tle_current":{"epoch":"2026-09-19T03:19:01.958304Z","epoch_age_seconds":270227,"freshness":"STALE","line1":"1 58889U 24020P   26262.13821711  .00001820  00000+0  65013-4 0  9997","line2":"2 58889  53.1594 139.9964 0001114  78.4470 281.6658 15.34385843147748","mean_motion":15.34385843,"eccentricity":0.0001114,"inclination_deg":53.1594,"raan_deg":139.9964,"arg_perigee_deg":78.447,"mean_anomaly_deg":281.6658,"bstar":6.5013e-5,"rev_number":14774,"period_min":93.848623967003,"perigee_km":461.98324382784,"apogee_km":463.50739240832,"semimajor_km":6840.8823181181,"source":"CELESTRAK","updated_at":"2026-09-21T09:00:33.994201Z"}}}